This demonstration page uses our WeatherBlox Daily Observations layout. Learn more.

Left ArrowRight Arrow

Hourly Observations for May 18, 2016

Temp ( °F °C ) Dew Point ( °F °C ) Humidity (%) Winds ( mph kmh ) Pressure ( in mb ) Visibility ( mi km ) Precip ( " mm )
12:02 am 00:02 Cloudy with Light Rain 52 11.1 51 10.6 97 97 N N/A 30.15 1021 7 11 N/A
12:53 am 00:53 Cloudy with Light Rain 52 11.1 51 10.6 97 97 NNW 3 6 30.15 1021 4 6 0.03 0.76
1:53 am 01:53 Cloudy with Light Rain 52 11.1 50 10 93 93 N 5 7 30.14 1021 7 11 N/A
2:53 am 02:53 Cloudy with Mist and Fog 52 11.1 50 10 93 93 N 6 9 30.13 1020 6 10 N/A
3:53 am 03:53 Cloudy with Mist and Fog 52 11.1 50 10 93 93 NNE 7 11 30.13 1020 6 10 N/A
4:53 am 04:53 Cloudy 52 11.1 50 10 93 93 NNE 6 9 30.12 1020 7 11 N/A
5:53 am 05:53 Cloudy with Mist and Fog 52 11.1 50 10 93 93 NNE 7 11 30.13 1020 6 10 N/A
6:53 am 06:53 Cloudy with Mist and Fog 53 11.7 51 10.6 93 93 NNE 9 15 30.14 1021 5 8 N/A
7:53 am 07:53 Cloudy 54 12.2 50 10 87 87 NE 14 22 30.16 1022 8 13 N/A
8:53 am 08:53 Mostly Cloudy 56 13.3 48 8.9 75 75 ENE 12 19 30.17 1022 10 16 N/A
9:53 am 09:53 Sunny 59 15 46 7.8 62 62 ENE 12 19 30.18 1022 10 16 N/A
10:53 am 10:53 Sunny 61 16.1 44 6.7 54 54 E 15 24 30.17 1022 10 16 N/A
11:53 am 11:53 Mostly Sunny 63 17.2 45 7.2 52 52 ENE 13 20 30.17 1022 10 16 N/A
12:53 pm 12:53 Mostly Cloudy 65 18.3 46 7.8 51 51 N 10 17 30.16 1021 10 16 N/A
1:53 pm 13:53 Mostly Cloudy 66 18.9 46 7.8 49 49 N 9 15 30.15 1021 10 16 N/A
2:53 pm 14:53 Mostly Cloudy 67 19.4 46 7.8 47 47 N 12 19 30.14 1021 10 16 N/A
3:53 pm 15:53 Mostly Sunny 68 20 42 5.6 39 39 N 9 15 30.13 1020 10 16 N/A
4:53 pm 16:53 Partly Cloudy 69 20.6 43 6.1 39 39 NNE 8 13 30.11 1020 10 16 N/A
5:53 pm 17:53 Mostly Sunny 69 20.6 41 5 36 36 NNW 9 15 30.11 1020 10 16 N/A
6:53 pm 18:53 Sunny 68 20 38 3.3 33 33 NNW 9 15 30.11 1020 10 16 N/A
7:53 pm 19:53 Sunny 65 18.3 41 5 42 42 N 7 11 30.12 1020 10 16 N/A
8:53 pm 20:53 Clear 61 16.1 41 5 48 48 NNW 7 11 30.13 1020 10 16 N/A
9:53 pm 21:53 Clear 58 14.4 42 5.6 56 56 NNW 6 9 30.14 1021 10 16 N/A
10:53 pm 22:53 Clear 56 13.3 42 5.6 60 60 N 6 9 30.16 1021 10 16 N/A
11:53 pm 23:53 Clear 54 12.2 42 5.6 64 64 N 5 7 30.17 1022 10 16 N/A

Powered by AerisWeather